Wind_Speed
19 18 17 16 16 16 16 14 14 14 14 14 14 12 11 10 10 9 9 9 8 8 8 8 8 7 7 7 7 6 7 6 6 6 5 5 5 5 6 7 5 5 6 6 6 6 6 6 5 6 6 6 6 5 6 6 7 7 7 7 7 7 8 9 9 10 10 9 9 10 9 10 9 9 9 9 10 11 11 12 14 14 14 14 15
20 18 17 17 16 15 15 14 14 14 13 14 14 13 12 11 11 10 9 9 9 9 9 8 9 9 8 8 9 8 8 7 6 6 6 6 5 5 6 6 6 5 6 6 6 6 6 6 5 5 6 6 6 6 6 6 7 7 7 7 7 7 8 9 10 10 11 10 10 10 10 9 10 9 10 10 11 12 12 12 13 13 14 15 15
20 19 18 17 16 15 15 15 15 14 13 13 13 13 13 12 12 12 11 10 10 10 10 9 10 11 10 10 11 10 9 8 7 7 7 7 6 5 6 7 7 6 5 6 6 6 6 6 5 5 5 6 7 6 6 6 7 7 8 8 8 8 8 10 11 11 11 12 12 11 11 11 10 10 11 12 12 13 14 14 14 14 14 16 16
21 20 19 18 17 16 15 15 15 14 14 14 14 13 13 12 12 12 12 11 10 11 11 10 11 12 10 10 11 11 10 9 8 8 7 7 7 6 7 8 7 7 6 6 6 6 7 6 6 5 6 7 7 6 6 6 6 7 8 8 8 8 8 9 11 12 13 14 14 13 13 13 12 11 12 13 13 14 16 17 17 16 17 17 16
21 21 20 20 19 18 16 15 15 15 15 15 15 14 13 13 13 13 12 12 12 12 12 12 13 13 11 10 10 11 11 11 10 9 8 8 8 7 7 8 8 8 8 8 7 7 7 7 7 7 7 7 7 6 6 7 7 7 7 8 8 8 9 10 11 12 13 15 15 15 14 13 12 13 14 15 15 15 16 18 18 18 21 21 19
20 21 21 20 19 18 17 16 16 16 16 16 16 16 15 14 13 13 13 13 13 13 12 12 12 13 12 11 10 11 12 12 13 12 10 9 9 9 8 9 8 8 8 8 8 8 7 8 8 8 8 8 7 7 7 8 8 8 8 9 9 9 10 10 11 12 13 14 15 15 14 13 14 15 15 17 19 18 18 19 19 21 23 24 23
19 21 21 21 21 20 19 18 17 18 19 18 18 18 17 16 14 13 13 13 14 14 14 13 13 13 13 13 12 12 13 13 14 15 13 11 10 11 10 10 10 9 9 8 8 8 8 8 8 8 8 9 8 7 8 8 8 8 9 9 10 10 10 10 11 12 12 13 13 13 14 14 15 16 16 17 19 18 17 17 20 23 25 27 27
21 22 22 23 24 24 23 22 21 21 21 20 19 19 19 18 17 16 15 14 14 14 14 14 14 13 13 13 13 12 13 13 14 15 15 13 12 12 12 11 11 10 10 9 9 9 9 9 9 9 9 10 10 9 8 9 9 9 9 10 11 11 11 11 12 12 13 13 13 14 15 16 17 17 16 16 16 16 15 16 19 22 25 27 29
24 25 26 26 27 26 25 24 24 23 22 21 21 20 20 20 20 19 18 16 14 14 14 14 14 13 13 13 13 12 12 12 13 14 14 13 12 11 11 11 11 11 11 10 10 10 10 10 9 10 12 13 13 12 11 12 12 12 12 13 13 13 13 13 13 14 14 14 14 15 16 16 17 17 16 16 16 16 16 17 18 20 23 27 30
22 24 26 26 27 27 26 26 26 25 24 24 23 23 23 22 21 21 20 18 16 16 16 16 14 13 13 13 13 13 12 12 14 16 15 14 13 12 12 12 13 13 12 12 11 11 10 10 10 12 15 15 13 13 13 13 13 14 14 15 15 15 15 15 14 14 14 15 15 15 16 16 17 17 18 18 17 17 17 17 20 22 25 28 31
21 23 24 25 26 26 27 27 28 27 26 26 25 25 25 24 23 23 22 21 19 18 18 17 16 14 13 13 13 12 13 15 18 17 15 15 16 16 15 14 14 15 14 13 12 11 11 11 10 12 13 12 12 13 13 13 13 14 14 15 16 16 16 15 15 14 15 15 16 16 17 18 18 19 19 19 18 19 19 21 24 26 27 27 28
21 21 22 22 22 24 25 26 27 26 26 27 26 26 25 25 24 23 23 22 20 20 18 17 18 16 14 14 14 12 15 19 19 16 14 15 16 17 17 15 15 14 14 13 12 11 11 11 10 10 11 11 12 13 14 14 14 14 15 15 15 15 15 16 15 16 16 17 18 19 20 20 21 20 21 21 21 22 25 27 28 29 28 27 27
20 19 19 19 19 19 21 22 22 23 24 24 24 25 25 25 25 23 23 23 21 21 19 18 18 17 14 14 13 12 17 21 18 16 16 16 15 16 16 16 16 15 14 14 13 12 12 12 11 10 10 13 14 14 14 16 16 15 16 16 15 15 15 14 15 16 17 19 21 23 23 23 24 24 24 24 26 27 29 30 30 29 29 30 31
18 19 19 19 18 18 18 18 17 19 21 22 22 22 23 25 25 22 22 22 21 21 20 18 18 16 15 15 13 14 19 21 17 17 17 16 16 16 16 17 18 16 16 16 15 14 15 14 13 12 12 14 16 16 16 16 16 17 17 16 16 16 15 15 16 17 19 21 23 24 24 24 25 26 26 27 28 29 30 31 31 31 33 34 34
18 18 18 18 18 18 17 17 18 20 22 21 20 20 20 23 24 23 22 20 19 19 18 18 19 17 15 14 13 16 21 21 18 17 17 15 16 15 15 17 17 16 17 19 19 18 18 17 16 15 15 17 18 17 16 16 17 17 17 17 17 16 16 17 18 19 20 22 24 24 23 23 24 26 27 27 27 29 30 32 33 33 34 34 33
16 17 16 16 15 14 14 15 16 18 18 18 19 19 20 22 22 22 20 19 18 17 16 16 17 16 13 12 12 16 20 19 18 17 16 16 15 14 15 16 15 15 17 19 20 20 19 19 17 15 16 18 19 17 17 17 17 18 18 19 19 20 20 19 19 21 23 23 24 24 24 24 24 26 27 26 27 28 29 30 31 30 30 30 29
13 13 13 11 9 8 8 9 10 11 13 16 18 20 22 22 21 19 18 18 19 18 15 15 15 15 13 12 13 17 20 18 16 16 16 16 15 14 15 14 13 15 17 19 20 20 20 21 19 15 15 19 20 18 18 18 18 19 20 21 22 24 24 21 20 22 23 24 26 27 26 26 26 26 26 25 25 26 26 28 28 27 26 26 26
13 12 12 11 10 7 6 6 6 7 11 14 15 17 20 22 21 20 18 17 16 14 12 13 13 13 13 13 15 18 19 17 15 14 14 15 14 15 15 12 11 13 14 16 17 18 19 20 19 17 18 20 20 19 19 20 20 20 21 21 22 22 22 20 18 19 19 21 26 27 25 25 26 26 26 24 22 22 24 26 26 24 24 24 24
11 10 10 11 11 10 8 7 7 8 9 9 9 9 11 14 16 17 16 14 13 11 9 8 9 10 12 14 16 17 16 15 15 14 14 14 14 14 15 13 12 11 11 12 13 14 16 17 17 18 19 20 20 20 21 21 21 22 21 20 19 19 19 19 20 21 21 23 26 26 24 24 25 24 24 22 20 20 21 22 22 21 22 24 24
10 9 10 10 9 8 7 6 7 7 7 6 4 4 4 5 8 11 10 8 8 10 9 8 9 10 10 12 14 14 13 12 13 14 14 15 14 14 15 14 13 12 12 12 11 11 12 14 16 18 19 18 19 20 20 20 20 20 19 18 18 18 19 20 21 22 23 24 25 24 23 22 21 20 20 20 19 19 19 20 20 18 19 22 23
11 11 11 10 9 8 6 6 7 7 6 5 5 4 5 5 5 7 7 5 5 8 10 9 7 7 6 6 7 10 11 11 12 12 12 12 13 14 14 14 14 14 14 14 12 9 8 9 14 17 17 15 16 16 17 17 16 16 16 17 17 18 19 20 20 21 22 23 23 22 21 19 18 18 18 18 17 17 17 19 20 19 18 20 21
10 9 8 6 7 8 6 5 7 6 5 5 6 5 5 5 4 5 5 4 5 7 8 8 5 4 4 3 4 6 7 8 9 9 9 8 8 9 9 10 11 11 10 9 7 7 7 8 11 12 11 11 13 13 13 14 14 14 14 15 15 16 17 18 19 20 22 22 22 21 20 19 17 16 16 15 15 15 16 17 20 21 22 22 22
8 6 4 3 3 4 4 4 3 3 3 2 3 4 5 5 4 5 6 6 6 7 7 7 5 4 3 2 3 4 4 5 5 5 5 5 5 5 5 5 6 7 7 6 5 7 10 11 10 10 10 11 12 12 12 13 14 14 15 16 17 18 19 19 20 21 22 23 23 23 22 19 16 14 14 13 15 17 18 18 20 22 23 24 23
7 6 4 2 1 2 3 3 1 1 1 1 1 1 2 3 4 5 5 6 6 6 6 7 6 5 4 3 4 4 3 4 4 5 5 5 5 5 5 4 5 5 6 7 7 9 11 11 10 11 12 13 13 13 14 15 16 17 19 20 21 21 22 22 22 23 24 25 24 23 21 17 15 14 16 17 19 21 20 19 19 19 20 21 22
6 5 4 3 3 2 2 2 2 2 2 3 3 2 2 2 1 2 4 5 5 5 5 5 5 4 5 5 6 5 5 6 7 8 8 8 8 9 8 7 7 7 8 9 10 11 12 12 13 14 15 15 15 16 16 17 19 20 21 21 22 23 23 24 24 25 25 24 23 21 18 16 15 16 19 20 20 19 16 15 16 16 16 18 19
5 4 4 3 3 2 1 1 0 1 1 2 3 4 4 4 4 3 4 4 5 5 5 5 4 4 6 7 7 7 7 8 9 11 12 12 12 12 12 12 12 11 12 14 14 14 15 16 16 17 17 17 18 18 18 19 20 21 21 22 22 22 22 23 24 24 24 23 22 20 17 15 16 19 20 19 16 14 13 13 14 13 14 15 17
4 3 3 3 2 1 1 1 1 1 1 1 2 3 4 4 4 4 4 4 5 6 6 6 6 7 8 9 10 9 8 10 13 14 14 14 15 15 16 16 16 15 15 17 18 18 18 18 19 19 20 20 20 20 20 20 20 20 20 19 19 19 21 22 22 23 23 22 19 16 16 16 18 19 17 15 13 12 12 13 14 14 15 16 17
3 3 4 3 2 2 2 2 1 2 3 3 4 5 5 4 4 6 7 6 6 6 7 8 10 11 10 11 11 8 6 12 17 17 16 16 17 17 18 19 19 18 18 19 20 20 20 20 20 20 20 19 18 17 16 16 16 16 16 15 15 16 18 18 17 17 17 16 15 15 16 16 16 15 14 13 14 15 17 17 18 19 19 19 18
3 3 2 1 1 1 2 2 2 2 3 4 5 7 7 7 8 9 10 9 8 8 9 10 11 11 10 12 12 10 10 15 18 17 16 17 17 17 18 18 17 18 18 18 18 18 18 18 17 16 15 14 13 12 11 11 11 12 12 13 13 13 13 12 12 12 12 13 15 15 14 13 13 13 13 14 15 17 18 19 20 21 21 19 19
4 3 1 0 2 2 1 3 4 3 2 3 5 6 7 7 9 10 10 9 10 10 11 11 11 11 11 13 13 13 15 17 16 15 16 17 16 16 17 16 16 16 16 16 16 16 16 15 13 11 11 12 11 10 10 10 11 11 11 11 11 11 10 10 10 10 11 13 14 13 12 13 13 13 14 14 15 16 16 17 19 21 21 20 19
3 3 2 3 4 3 3 4 5 4 4 4 4 4 5 6 8 9 9 9 10 10 11 11 11 11 12 13 14 15 16 16 15 15 16 16 16 16 16 16 16 16 16 15 15 15 14 14 12 11 12 13 12 11 11 11 11 11 11 11 10 10 10 10 10 11 12 12 12 12 13 13 13 14 15 15 16 17 17 17 17 18 19 19 20
2 1 2 5 6 4 3 4 4 3 4 4 3 4 4 4 5 7 8 9 9 10 10 10 10 10 11 12 14 15 15 14 15 15 15 15 15 15 15 16 16 17 16 16 16 15 14 14 13 13 13 13 12 12 12 12 12 12 12 12 11 11 10 11 12 13 12 12 12 13 13 14 14 15 16 16 17 18 18 17 17 17 18 19 19
1 1 1 3 4 3 3 3 3 3 3 3 3 4 4 3 4 6 7 8 9 10 11 11 11 11 12 12 13 14 14 14 14 14 14 15 15 14 14 14 15 16 16 16 16 15 15 13 12 12 12 12 12 12 13 13 13 14 14 13 13 12 12 13 14 13 12 13 14 14 14 15 16 16 17 18 18 19 18 18 18 18 18 19 19
2 2 1 2 2 2 2 2 2 2 3 3 2 3 4 5 5 5 5 6 7 9 11 12 12 13 13 14 13 13 13 13 13 13 14 14 15 14 14 14 14 15 16 15 14 14 14 13 12 12 12 12 13 13 13 13 13 14 14 14 13 13 14 15 15 13 12 13 14 14 15 16 17 18 19 19 19 19 19 19 19 19 19 19 20
3 3 3 2 2 2 2 2 2 3 4 3 2 2 4 5 4 5 5 5 5 6 8 10 12 12 12 13 13 12 12 12 12 13 13 13 13 13 12 12 12 13 14 14 13 13 13 13 13 13 12 12 12 12 13 13 13 13 13 13 13 14 15 15 15 14 14 15 16 16 17 18 19 20 21 20 20 21 21 20 20 20 20 20 20
5 5 5 5 4 3 3 4 4 5 5 4 3 4 4 4 3 4 5 6 6 5 6 8 10 10 10 12 13 13 13 12 11 12 12 12 11 11 10 9 8 9 10 10 10 11 11 12 12 12 12 12 12 12 12 12 13 13 14 14 15 15 15 15 15 15 15 16 17 18 19 20 21 21 22 22 22 22 21 21 21 20 20 21 21
4 5 6 6 5 5 5 6 6 6 6 6 6 5 4 4 4 4 4 4 5 6 6 8 10 9 9 11 13 13 12 11 11 11 11 11 11 10 8 8 9 9 9 9 10 11 11 11 11 11 11 11 12 12 12 12 13 14 14 15 16 16 17 18 19 20 20 19 19 20 21 21 21 22 22 23 23 22 22 22 22 22 22 22 22
4 5 6 7 7 6 6 7 7 6 5 5 5 4 4 4 4 4 4 5 6 6 6 7 8 6 5 8 13 15 12 9 8 8 9 9 9 9 8 8 9 9 8 8 10 12 11 10 10 11 11 11 11 11 12 13 13 14 15 15 16 16 18 19 20 20 21 21 20 20 21 21 21 21 22 23 23 23 23 23 23 23 24 23 23
6 6 7 7 8 8 7 6 5 4 3 3 4 4 5 5 5 5 5 6 6 6 5 5 6 5 6 9 13 14 10 6 5 6 8 9 9 10 10 9 9 9 9 10 10 10 10 10 10 11 12 12 12 12 13 14 14 15 15 15 16 17 17 18 18 18 18 19 20 20 20 21 21 21 22 23 24 24 24 24 24 24 25 26 26
8 9 9 8 9 9 7 6 4 3 3 4 4 5 6 6 6 6 6 6 6 6 6 6 6 6 9 11 12 10 8 6 5 6 8 8 8 8 9 8 8 8 9 9 9 9 9 9 9 10 11 11 11 12 13 14 14 15 16 16 17 17 17 17 18 18 18 18 18 19 19 20 21 21 22 23 23 23 24 25 26 27 28 29 28
9 11 11 11 10 8 7 5 4 4 6 6 7 7 6 6 6 6 6 6 6 6 6 7 6 7 11 15 14 13 11 8 6 6 7 7 7 7 8 8 8 8 8 8 8 9 9 9 10 10 11 11 11 12 13 14 15 15 16 16 17 17 17 17 17 16 17 18 19 19 20 21 22 22 23 24 24 25 25 26 27 27 27 27 27
10 11 12 12 11 8 5 4 6 7 8 8 7 6 6 6 7 7 7 7 7 6 7 7 6 8 14 18 17 15 12 8 6 6 7 7 7 8 8 8 8 8 8 8 8 9 10 11 12 13 12 12 12 12 14 15 16 16 17 19 19 19 19 19 19 18 18 20 21 22 23 23 24 24 24 24 26 27 28 28 28 27 27 28 28
12 12 12 12 10 8 6 6 8 8 8 7 6 6 6 7 7 7 7 7 7 7 8 8 7 9 13 17 17 13 9 7 6 7 7 8 8 8 8 8 8 8 8 8 9 10 11 12 13 13 13 13 13 14 15 15 16 17 18 19 21 21 20 20 21 20 20 20 21 22 23 24 24 24 24 24 25 27 28 28 28 28 27 28 28
14 13 13 12 10 9 8 8 9 8 7 7 8 7 7 7 7 7 7 7 8 8 8 8 8 9 11 13 12 9 7 6 6 7 7 8 8 8 8 9 9 9 9 9 9 10 11 12 12 13 13 14 14 15 15 16 16 17 17 18 19 20 19 19 20 21 21 22 22 22 22 23 24 24 24 24 24 26 27 27 28 29 28 28 28
14 14 13 11 10 9 8 9 8 7 7 7 7 7 7 6 7 7 7 8 8 8 8 9 9 9 10 10 9 8 8 8 7 7 7 8 8 8 9 9 9 10 10 10 10 10 11 11 11 12 13 13 14 15 15 16 16 17 17 18 19 19 19 19 19 19 20 22 23 22 23 25 26 26 27 27 27 27 27 26 26 28 28 29 29
15 13 12 10 9 9 8 7 7 6 6 6 6 7 7 7 7 8 8 8 8 8 8 8 9 8 8 8 8 8 8 8 8 8 8 8 8 8 8 9 10 11 11 11 11 12 12 12 13 13 13 13 14 14 15 16 16 17 17 18 18 18 19 20 19 20 22 26 27 28 30 32 33 34 35 35 35 36 35 34 32 31 30 30 30
15 13 11 10 9 9 9 8 7 6 6 6 6 7 7 7 8 8 8 8 8 8 8 8 7 8 8 8 8 8 8 7 7 8 8 8 8 8 9 9 10 11 12 12 12 11 11 11 12 12 13 13 14 14 14 15 16 16 16 16 17 19 21 22 23 25 28 30 31 33 35 37 38 38 38 39 39 37 35 36 38 38 36 34 31
14 12 11 10 9 8 8 8 7 6 5 6 6 7 8 8 8 8 8 8 8 8 8 8 8 8 8 8 8 7 7 7 7 8 8 8 8 9 9 10 11 13 15 14 13 12 12 12 12 13 13 13 13 13 13 14 15 15 15 16 19 22 24 24 26 28 31 33 34 35 37 38 39 38 38 38 37 33 30 32 36 37 37 35 31
13 11 10 9 8 8 8 8 7 6 6 7 7 7 8 8 8 8 7 7 7 7 7 8 8 7 7 7 7 7 7 7 8 8 8 8 8 8 9 10 12 14 14 13 12 13 14 14 14 14 13 13 13 14 13 13 13 13 15 19 23 24 24 25 26 29 32 34 35 36 37 38 38 38 37 37 37 35 33 32 32 32 32 32 30
11 11 10 10 9 8 8 7 6 6 6 6 6 7 7 7 7 7 7 7 7 7 7 7 7 7 7 7 7 7 7 7 7 7 7 7 8 8 10 11 12 12 13 13 13 13 14 14 14 15 15 15 15 15 15 15 14 15 19 24 26 26 27 28 30 32 33 34 35 37 38 38 39 39 38 38 38 38 35 32 30 31 31 30 30
10 10 11 11 10 8 7 6 6 6 6 5 5 5 6 6 6 6 6 7 7 7 6 6 6 6 6 6 6 6 6 6 6 7 7 7 7 8 9 9 10 11 11 12 11 11 12 13 14 15 15 16 16 17 18 17 16 19 24 28 29 29 31 32 32 32 32 32 34 36 37 38 39 39 39 38 38 38 36 33 30 31 32 31 30
Wind_Direction
220 223 220 217 219 222 223 224 225 225 224 225 223 220 222 221 219 220 221 220 222 226 223 220 221 220 220 220 216 222 228 221 222 237 247 250 245 237 246 258 255 247 250 247 247 253 253 254 258 264 273 278 281 285 288 293 297 299 302 307 310 310 307 306 307 308 312 313 310 312 317 320 321 319 322 326 321 324 331 330 331 332 327 324 324
223 223 222 221 222 224 225 225 227 225 223 227 227 224 224 224 224 223 224 228 226 223 222 221 224 222 217 223 224 224 232 231 225 231 242 250 252 248 258 267 260 250 255 255 253 252 251 253 259 271 282 284 284 284 281 281 285 287 292 298 302 306 307 307 307 310 313 313 311 313 317 317 316 316 319 321 321 322 326 327 328 326 321 321 324
226 224 223 224 224 225 225 226 228 225 219 221 224 224 224 224 228 229 227 230 229 223 218 215 225 227 219 225 229 226 229 228 223 230 238 245 247 238 240 254 259 259 261 262 262 259 258 259 262 266 269 270 274 278 277 278 279 282 287 290 293 298 301 300 301 305 307 306 309 313 313 311 313 315 317 320 321 321 322 324 324 322 318 318 322
230 228 227 228 229 228 228 227 228 224 218 218 218 221 224 223 228 231 229 229 229 226 220 214 224 231 225 227 231 228 227 224 221 230 238 245 248 243 239 243 250 253 254 255 254 252 256 261 261 259 257 261 270 276 278 279 281 285 290 292 294 297 296 296 298 300 301 303 307 309 310 313 314 313 315 318 319 320 321 323 324 321 318 318 320
235 234 232 231 229 228 227 227 228 225 220 219 217 219 224 225 228 231 232 230 227 226 224 220 226 232 227 226 229 228 228 227 224 224 231 241 243 242 245 248 248 249 251 254 253 252 255 258 257 258 260 266 273 276 274 274 281 288 288 288 292 295 294 296 298 298 300 302 305 309 312 313 309 310 314 316 318 319 318 320 321 319 319 320 319
235 234 233 233 231 227 224 223 226 227 224 221 218 217 221 224 229 231 233 232 227 226 227 226 228 231 228 225 226 229 230 230 230 227 226 235 240 237 240 245 247 248 249 252 254 254 255 257 258 260 261 265 268 269 271 277 282 283 283 285 289 290 294 298 298 299 301 303 304 307 309 308 306 309 313 315 319 321 319 317 317 318 320 321 320
233 230 229 231 234 234 231 227 226 226 226 223 220 219 219 221 224 229 230 229 226 225 227 229 230 232 233 230 228 232 235 233 233 232 228 230 237 237 236 238 242 246 246 246 246 248 251 254 258 262 264 265 265 268 275 280 281 280 283 287 288 288 290 293 292 294 297 298 300 300 301 302 303 307 309 312 317 319 317 313 314 317 320 320 320
236 232 229 229 232 233 234 233 230 228 227 226 224 224 223 222 223 224 226 226 225 225 227 231 233 234 235 234 230 232 237 237 237 238 235 233 236 240 240 239 240 241 244 244 242 242 244 247 251 257 261 261 259 258 261 265 268 273 276 278 281 284 286 287 288 291 293 294 295 296 298 300 303 306 309 310 311 311 310 308 309 314 318 319 320
235 234 233 232 234 236 238 237 233 232 232 232 231 229 227 228 228 229 230 229 227 226 226 228 230 231 230 229 227 227 231 234 234 234 234 233 236 241 245 245 243 243 244 245 245 245 245 246 248 248 247 250 255 257 256 258 261 264 267 270 273 277 279 281 283 288 291 292 292 294 297 299 301 305 307 308 308 307 308 308 308 311 313 315 318
235 236 236 235 237 240 241 237 234 233 233 234 234 231 229 229 229 230 231 230 229 228 226 225 225 227 228 227 227 227 229 232 233 232 230 229 232 236 240 242 241 241 242 243 243 244 245 246 248 250 251 254 260 264 263 264 267 268 269 270 271 273 275 279 283 287 289 290 292 295 296 296 299 302 303 306 307 306 305 305 305 308 310 312 316
236 239 240 239 240 240 238 236 235 235 234 233 233 231 231 230 230 229 228 228 229 231 231 230 228 227 228 228 226 226 229 233 237 238 235 233 235 237 240 245 245 243 244 246 245 245 246 246 247 255 262 263 263 265 265 266 269 273 275 277 278 279 280 283 286 288 291 291 291 293 293 294 298 300 302 304 304 302 302 303 305 307 308 309 310
236 238 237 236 237 236 234 234 235 235 236 235 234 233 233 231 229 228 226 226 228 230 231 232 230 226 226 228 226 225 231 234 237 240 238 236 239 241 242 246 249 249 248 248 248 249 250 251 249 253 259 260 261 266 271 272 273 275 278 280 282 283 285 287 290 293 295 295 293 293 293 294 296 297 300 301 301 300 300 302 304 304 305 305 304
228 228 227 227 230 231 231 232 234 235 238 238 237 236 234 231 228 226 226 226 228 228 227 228 230 227 223 226 224 225 234 237 236 238 238 237 239 241 241 242 243 246 247 247 249 250 251 253 253 253 257 262 264 267 270 274 278 279 280 280 280 282 281 281 285 290 292 292 291 291 292 292 292 293 294 296 296 297 298 298 300 300 300 301 301
215 216 215 216 220 222 222 225 228 233 236 237 236 235 232 229 227 225 225 226 228 229 228 229 235 233 226 225 222 226 238 240 236 236 238 239 240 240 241 242 243 244 246 247 249 251 255 258 259 257 257 261 266 268 269 274 279 282 282 282 280 278 277 276 279 283 287 290 290 290 290 290 290 290 291 292 292 293 294 294 296 297 297 298 300
211 215 216 216 221 224 223 223 228 235 238 235 231 228 226 225 223 220 220 221 224 228 230 231 235 233 229 227 223 229 240 244 241 240 242 243 245 244 240 241 242 243 246 248 249 252 258 262 262 261 262 263 267 271 274 277 280 281 282 280 278 278 279 282 284 285 287 289 290 289 289 288 287 288 290 291 290 290 291 292 293 295 297 300 303
201 204 209 213 218 221 219 216 223 232 233 226 220 219 218 217 215 215 216 217 221 225 228 231 233 231 228 227 225 232 242 247 246 247 248 248 249 248 244 242 242 242 244 248 250 252 255 257 258 262 265 266 267 270 275 279 281 281 280 280 279 280 280 282 283 285 287 288 285 281 280 279 279 281 285 286 287 288 288 288 289 292 296 299 301
171 174 176 174 175 185 190 190 201 216 217 215 216 216 216 214 212 214 215 216 223 227 226 228 229 225 220 216 219 231 241 248 249 249 251 250 249 248 247 245 244 244 245 247 249 249 249 251 252 254 259 263 266 270 275 277 280 282 282 283 283 284 286 287 286 286 287 288 287 283 280 279 278 278 280 282 283 286 287 287 290 294 294 292 293
137 141 141 136 135 140 145 150 165 182 192 202 206 205 206 206 203 205 205 203 208 213 218 223 222 216 213 209 215 228 237 243 248 252 254 253 251 250 249 246 243 246 249 251 250 248 247 249 251 252 257 265 270 274 277 280 284 285 285 285 285 287 290 292 290 287 285 285 289 290 290 289 288 287 287 287 285 283 284 286 290 293 290 288 289
118 126 126 122 124 126 127 134 144 153 166 182 189 187 190 192 192 196 198 195 194 192 196 212 208 203 210 216 223 234 241 244 247 250 254 256 255 254 251 247 244 244 248 249 247 246 246 250 255 257 260 268 275 279 282 285 288 288 288 288 288 289 290 289 288 291 291 287 289 293 295 294 295 297 298 298 297 295 293 293 295 293 288 285 287
109 111 102 96 99 104 115 131 132 129 138 151 156 147 146 160 178 186 187 190 190 182 185 201 203 204 215 224 232 240 246 250 253 253 255 257 257 254 250 247 243 240 243 245 244 245 251 257 261 261 263 271 278 283 286 287 289 289 288 287 286 286 288 289 291 295 296 295 296 299 300 298 298 298 297 297 299 302 301 299 297 295 289 287 287
93 89 87 88 83 80 87 99 100 99 104 103 95 91 94 102 133 160 165 167 165 171 189 205 203 199 204 211 231 244 248 254 258 259 258 257 255 251 249 248 244 240 243 248 246 241 245 255 262 263 268 276 281 283 285 286 288 287 285 284 284 286 290 294 297 300 302 305 308 310 308 305 301 298 295 296 298 298 296 294 292 288 286 285 287
87 83 87 94 88 87 94 89 81 82 85 85 89 98 100 93 107 142 154 154 149 164 192 204 189 180 190 194 226 243 248 253 253 252 252 254 256 258 258 258 255 246 244 250 247 237 238 249 258 264 269 272 274 276 280 282 283 282 282 284 288 293 298 302 306 307 307 309 311 311 311 310 306 301 299 300 299 292 285 284 285 284 283 283 285
95 97 103 97 76 86 101 89 68 67 75 78 98 115 119 118 127 144 151 151 150 155 168 175 167 168 186 208 241 249 253 260 258 254 256 258 265 273 271 266 258 242 232 231 228 236 248 253 256 260 261 261 264 267 270 275 278 280 283 287 292 297 301 303 308 311 310 308 309 311 314 314 311 306 301 297 294 290 287 284 285 286 286 285 285
92 96 103 106 90 97 112 120 172 258 315 319 335 76 120 130 134 145 150 154 162 167 169 170 165 159 168 204 242 257 264 271 274 275 275 273 276 282 283 280 269 253 243 242 240 245 254 258 258 258 259 262 266 267 268 272 276 281 286 290 293 296 297 299 305 310 310 309 310 311 313 313 308 303 299 297 299 301 301 297 293 291 290 290 290
93 95 96 96 95 99 118 142 175 194 229 264 286 304 295 277 209 184 172 172 178 178 181 188 184 179 195 219 239 251 259 271 279 280 278 279 282 286 291 293 293 291 285 277 272 271 273 274 273 273 275 277 279 279 279 279 280 283 288 292 293 295 297 299 303 306 306 306 307 306 306 306 301 298 299 302 305 308 309 305 301 300 301 301 300
86 93 97 93 93 94 90 90 145 151 200 245 267 277 278 276 263 235 204 203 206 199 199 202 194 201 220 235 245 251 255 262 270 276 281 284 285 288 290 290 291 294 291 287 285 285 287 289 289 290 292 293 292 291 290 288 288 290 293 296 297 298 299 300 302 303 302 302 302 301 300 297 294 294 298 304 310 312 308 305 306 307 307 305 302
50 44 45 48 52 56 35 327 306 307 273 234 233 253 255 256 252 233 211 205 207 207 210 212 212 222 234 243 249 254 257 254 256 264 274 280 283 287 290 290 292 294 291 289 292 294 295 297 299 300 301 301 301 301 300 298 299 299 299 300 299 297 298 299 299 298 299 301 301 296 292 290 291 296 301 305 305 300 294 294 296 296 296 299 300
41 36 36 36 31 19 357 333 306 285 271 251 236 238 238 231 232 235 231 223 214 210 212 219 226 230 236 243 245 241 243 253 258 263 269 272 276 279 281 285 288 289 288 289 293 297 298 300 302 304 305 305 306 307 306 306 306 305 305 303 299 298 303 304 302 298 298 298 294 290 290 291 293 297 300 299 294 290 289 291 292 292 294 299 302
23 48 72 64 1 19 21 331 291 268 266 262 253 247 241 236 238 243 244 240 236 234 230 231 235 232 232 241 241 228 232 253 264 270 271 271 273 275 275 278 281 283 284 287 291 294 296 299 304 307 306 306 308 308 305 302 301 302 301 299 299 301 302 298 295 294 291 290 292 295 295 295 296 299 299 299 298 298 301 303 304 304 304 303 302
3 14 64 325 305 320 317 297 289 273 249 250 255 257 253 245 245 249 251 246 243 243 243 244 243 238 239 246 247 241 248 261 270 273 274 276 278 279 280 281 282 283 285 288 291 295 299 303 308 307 303 305 308 307 304 302 303 303 301 300 300 299 291 287 289 289 287 291 297 298 294 295 298 300 300 299 299 301 304 306 307 308 306 303 300
19 14 341 307 310 314 299 297 301 294 271 257 249 251 255 252 251 253 256 255 253 249 248 249 247 244 246 253 255 253 257 264 268 270 273 277 280 281 285 289 291 292 294 294 297 303 307 308 307 302 300 304 306 303 301 304 304 303 303 302 299 294 290 291 290 287 288 293 295 293 294 298 302 301 300 299 300 302 303 303 301 301 300 298 297
35 43 324 318 329 341 330 316 314 303 289 280 260 243 246 262 270 266 263 264 266 266 264 262 258 254 252 256 260 261 261 264 267 270 272 273 274 276 280 284 287 290 292 294 297 300 300 299 298 297 298 301 301 299 299 301 299 298 299 299 296 293 291 288 284 285 289 291 290 292 297 301 302 301 301 302 303 303 304 303 301 300 298 296 296
20 16 324 326 338 345 341 335 328 313 297 278 258 245 233 231 256 271 272 272 272 272 272 272 272 269 265 261 261 264 268 270 271 273 273 273 273 274 276 279 282 283 285 287 289 289 291 292 293 293 292 291 291 292 293 293 293 294 295 294 293 292 290 285 284 287 291 289 287 290 294 299 302 303 303 304 304 302 301 301 301 301 300 298 297
19 10 350 332 330 331 331 329 321 309 293 269 243 235 235 228 227 240 259 272 275 273 271 269 268 268 269 269 268 267 269 271 271 271 272 273 275 278 279 279 279 279 279 279 279 279 281 282 282 283 283 284 286 287 288 288 290 291 293 294 293 291 288 287 288 288 284 281 283 284 285 290 298 302 302 302 303 301 300 300 300 299 298 297 297
14 10 2 359 356 342 320 298 279 271 273 269 240 218 236 241 233 228 229 230 243 260 267 266 263 260 260 265 269 271 270 268 267 268 268 268 270 273 275 276 278 279 280 280 280 279 278 279 281 283 284 285 286 287 289 290 291 291 291 291 290 288 288 291 293 287 277 271 273 275 278 285 293 298 299 299 299 299 299 299 298 297 296 296 296
8 2 355 355 354 327 302 293 281 267 263 261 242 224 230 230 222 232 240 235 230 235 250 261 264 264 262 262 264 265 267 268 268 270 272 273 272 270 269 268 270 271 274 278 282 283 282 283 285 286 287 288 289 291 292 292 293 292 291 289 289 288 289 289 286 279 272 270 273 277 282 286 290 293 295 295 295 296 296 297 298 297 296 296 296
0 345 335 335 332 316 301 294 286 280 276 267 250 237 234 229 219 220 234 244 238 231 240 259 270 279 284 277 270 265 261 261 265 271 274 276 277 276 273 266 262 262 267 272 274 273 276 281 285 287 289 290 292 293 293 293 293 293 292 292 291 289 288 285 279 274 272 275 278 282 285 286 288 290 291 292 293 294 294 296 297 297 297 297 297
327 324 322 323 320 312 305 301 301 306 303 286 271 258 250 248 245 235 233 248 253 249 252 267 275 280 282 277 275 274 268 262 268 279 282 280 278 275 268 263 265 267 270 271 271 272 276 283 285 286 287 287 288 291 291 291 292 294 292 292 291 289 290 291 290 286 283 283 282 282 284 286 287 289 289 289 290 292 293 295 296 297 297 296 296
299 311 317 320 316 308 298 291 294 299 286 268 266 266 261 257 259 253 248 256 263 262 260 264 267 265 259 261 269 274 273 264 268 279 278 274 272 267 260 259 261 262 262 265 271 275 280 284 284 284 284 283 285 287 288 286 286 286 286 289 292 292 291 291 291 290 288 287 286 285 284 284 285 285 286 287 288 290 291 292 293 294 294 294 295
291 303 311 318 319 310 297 285 278 274 268 260 256 260 264 262 259 256 255 256 258 257 257 255 255 260 261 259 263 273 279 274 274 278 277 276 277 278 277 277 276 273 272 274 277 280 284 288 289 289 289 288 288 289 289 286 285 285 288 291 292 292 291 289 286 284 284 286 286 285 284 284 285 286 286 286 285 285 287 288 289 291 292 293 294
281 293 303 312 313 305 295 286 266 246 247 251 253 255 260 263 262 259 257 257 257 258 259 258 258 263 264 263 266 277 283 283 282 285 286 285 284 286 288 289 288 288 288 288 288 290 292 293 291 290 291 291 290 289 288 286 285 286 288 288 287 286 285 281 276 273 273 275 278 281 282 284 284 283 282 281 281 283 286 287 288 289 290 290 291
270 281 294 303 306 303 290 267 259 260 263 267 267 263 257 258 262 262 260 260 262 262 261 262 263 267 270 273 277 280 280 275 274 278 281 280 280 281 282 282 283 283 282 283 286 289 289 289 288 288 288 289 290 291 291 290 289 287 284 281 280 281 280 275 271 271 274 278 281 282 282 280 279 278 279 280 282 284 286 286 286 287 287 287 288
260 271 281 287 288 286 272 258 262 272 278 274 264 254 251 254 261 264 263 263 264 263 263 265 263 265 274 283 288 287 279 271 271 274 275 274 275 276 277 278 279 277 275 277 281 282 283 285 287 286 284 283 283 283 285 288 289 289 288 286 284 283 282 279 278 279 281 282 282 280 277 277 279 280 282 284 285 286 287 287 287 287 288 287 287
253 262 271 275 273 269 267 268 269 267 259 250 244 244 248 254 260 262 263 264 264 263 263 264 261 260 269 282 290 291 281 273 272 272 272 273 273 273 275 277 277 276 277 278 280 281 281 282 283 283 284 283 282 281 282 283 283 284 286 287 285 283 282 282 282 281 280 279 278 278 278 280 282 283 283 284 284 285 286 287 287 287 286 286 286
246 253 259 262 263 263 266 272 271 258 245 246 250 249 248 251 255 259 261 262 264 264 262 259 259 258 260 267 275 277 275 275 276 275 274 274 273 274 276 278 277 277 277 276 277 280 280 278 279 282 284 284 285 285 285 284 283 283 283 283 283 283 283 282 280 279 277 276 277 279 281 282 282 283 283 284 284 283 284 285 286 286 286 286 285
237 243 246 244 244 248 250 251 251 244 235 237 241 242 244 249 254 257 260 259 260 261 261 257 257 260 262 264 268 270 271 273 274 275 275 276 274 276 279 280 280 281 280 277 275 276 276 276 277 280 281 283 285 286 285 285 286 285 283 283 284 284 281 276 270 269 270 272 272 274 277 279 281 282 283 284 285 285 284 284 284 285 286 286 285
234 237 239 233 232 239 238 231 228 231 233 234 236 239 244 249 252 254 258 258 256 257 259 260 260 261 263 264 266 268 271 273 275 276 277 277 277 279 281 281 281 281 279 277 275 275 276 277 279 280 282 284 285 285 286 288 288 286 286 286 281 275 271 267 266 267 271 274 275 276 278 279 280 280 282 284 286 285 283 283 284 285 285 285 284
235 237 239 232 227 229 230 225 222 226 230 235 240 243 246 250 251 252 255 256 256 257 260 261 260 261 261 263 265 268 270 273 275 276 278 279 281 284 284 282 279 277 276 276 277 278 279 279 281 283 285 286 286 286 287 287 287 288 290 285 275 268 265 266 270 275 281 284 284 284 283 282 281 281 282 284 285 284 283 283 284 285 285 284 282
231 231 233 229 220 215 216 217 220 226 231 235 240 244 246 247 247 248 249 251 254 257 258 257 257 259 261 263 265 267 271 274 276 278 280 282 284 285 284 283 284 285 284 283 283 283 282 282 283 285 284 284 286 289 287 284 287 291 286 275 269 266 266 268 274 283 290 292 291 288 286 285 283 282 282 282 283 283 283 283 283 284 284 283 281
229 224 220 213 207 209 215 218 219 224 230 233 237 240 241 242 243 245 247 250 253 255 257 258 260 262 263 264 265 267 271 275 276 279 281 282 283 285 287 288 290 294 294 291 288 286 286 286 287 286 285 284 285 285 282 283 288 287 277 270 268 270 272 276 282 289 293 293 291 288 286 285 285 284 283 283 283 284 283 282 281 282 283 282 281
227 223 218 211 206 208 217 222 224 226 230 232 231 231 234 238 242 246 248 250 253 255 256 257 259 261 262 264 268 270 274 276 279 280 284 286 287 290 293 295 299 302 303 301 298 296 294 292 291 290 290 289 288 286 286 287 285 277 272 272 275 277 281 285 290 292 293 292 289 287 286 286 286 287 287 285 284 284 285 284 283 284 285 283 281
Height
1592 1593 1595 1596 1597 1598 1600 1601 1602 1603 1605 1606 1608 1609 1610 1611 1613 1614 1614 1615 1615 1615 1616 1616 1616 1617 1617 1618 1618 1618 1618 1618 1619 1619 1619 1620 1620 1621 1621 1620 1621 1621 1621 1621 1622 1622 1621 1621 1621 1621 1622 1622 1622 1623 1624 1624 1624 1623 1623 1623 1622 1622 1621 1620 1619 1619 1619 1618 1618 1617 1616 1615 1614 1613 1612 1611 1610 1608 1607 1606 1605 1603 1602 1601 1599
1590 1592 1593 1594 1596 1597 1598 1600 1601 1602 1603 1605 1606 1607 1609 1610 1611 1612 1613 1613 1613 1614 1615 1615 1615 1616 1616 1617 1617 1617 1617 1617 1618 1618 1618 1619 1619 1620 1620 1620 1620 1620 1621 1621 1621 1621 1621 1621 1621 1621 1621 1621 1621 1622 1623 1623 1623 1623 1623 1622 1622 1622 1621 1620 1619 1618 1618 1617 1617 1616 1615 1614 1613 1612 1611 1610 1609 1608 1607 1606 1604 1603 1602 1600 1598
1589 1590 1592 1593 1594 1595 1597 1598 1599 1600 1602 1603 1605 1606 1607 1608 1609 1610 1611 1612 1612 1613 1613 1614 1614 1614 1615 1615 1615 1616 1616 1616 1617 1617 1617 1618 1618 1619 1620 1620 1620 1620 1620 1620 1620 1620 1620 1620 1620 1621 1621 1621 1621 1621 1622 1622 1622 1622 1622 1621 1621 1620 1620 1619 1618 1617 1617 1616 1615 1615 1614 1613 1612 1611 1610 1610 1608 1607 1606 1605 1603 1602 1601 1599 1598
1587 1589 1590 1592 1593 1594 1595 1596 1598 1599 1600 1602 1603 1605 1606 1607 1608 1608 1609 1611 1611 1611 1611 1612 1612 1612 1613 1614 1614 1614 1615 1615 1616 1616 1616 1617 1617 1618 1619 1619 1619 1619 1619 1620 1620 1620 1619 1619 1620 1620 1620 1620 1620 1620 1621 1621 1621 1621 1621 1620 1620 1619 1619 1618 1617 1616 1616 1615 1614 1614 1613 1612 1611 1611 1610 1609 1608 1606 1605 1603 1602 1601 1599 1597 1597
1585 1586 1588 1590 1591 1592 1593 1595 1596 1597 1598 1599 1601 1602 1604 1605 1606 1607 1608 1609 1610 1610 1610 1610 1610 1611 1612 1612 1613 1613 1613 1614 1615 1615 1616 1616 1616 1617 1617 1617 1618 1618 1618 1618 1618 1618 1618 1619 1619 1619 1619 1619 1619 1620 1620 1620 1620 1620 1620 1619 1619 1618 1618 1617 1616 1615 1615 1614 1613 1612 1612 1611 1610 1609 1609 1607 1606 1605 1604 1602 1600 1599 1597 1596 1595
1582 1584 1586 1587 1589 1590 1591 1592 1593 1595 1596 1597 1598 1599 1601 1603 1604 1605 1606 1607 1608 1609 1609 1609 1609 1609 1610 1611 1612 1612 1612 1613 1613 1614 1615 1615 1615 1616 1616 1616 1616 1616 1617 1617 1617 1617 1617 1618 1618 1618 1618 1618 1619 1619 1619 1619 1619 1619 1619 1618 1618 1617 1617 1616 1615 1614 1614 1613 1612 1611 1611 1610 1609 1608 1607 1606 1605 1603 1602 1600 1599 1597 1595 1594 1593
1580 1582 1584 1585 1586 1588 1589 1590 1591 1592 1593 1594 1596 1597 1598 1599 1601 1602 1603 1604 1605 1607 1608 1608 1608 1608 1608 1609 1610 1611 1611 1611 1612 1612 1613 1614 1614 1614 1615 1615 1615 1615 1616 1616 1616 1617 1617 1617 1617 1617 1617 1617 1617 1618 1618 1618 1618 1618 1617 1617 1616 1616 1615 1615 1614 1613 1613 1612 1611 1610 1610 1609 1608 1607 1606 1605 1603 1602 1600 1599 1597 1595 1594 1592 1590
1577 1579 1581 1582 1583 1585 1586 1587 1588 1589 1590 1592 1593 1594 1595 1596 1598 1599 1600 1601 1603 1605 1606 1606 1607 1607 1607 1608 1609 1609 1609 1610 1610 1610 1611 1612 1613 1613 1613 1614 1614 1615 1615 1615 1615 1616 1616 1616 1616 1617 1617 1616 1616 1616 1616 1616 1616 1616 1616 1615 1615 1614 1614 1614 1613 1612 1611 1611 1610 1609 1608 1607 1606 1605 1605 1603 1602 1601 1599 1598 1595 1593 1592 1590 1588
1574 1575 1577 1579 1580 1582 1583 1585 1586 1587 1588 1589 1590 1592 1593 1594 1595 1596 1597 1599 1601 1602 1603 1605 1605 1606 1606 1606 1607 1608 1608 1609 1609 1609 1609 1610 1611 1612 1613 1613 1613 1614 1614 1614 1614 1614 1615 1615 1615 1615 1615 1614 1614 1614 1614 1614 1614 1614 1614 1613 1613 1613 1612 1612 1611 1611 1610 1609 1608 1608 1607 1606 1605 1604 1603 1602 1601 1599 1598 1596 1594 1593 1591 1589 1587
1572 1573 1574 1576 1578 1579 1581 1582 1583 1584 1585 1586 1587 1588 1590 1591 1592 1593 1594 1596 1598 1599 1601 1602 1603 1604 1604 1605 1605 1606 1607 1607 1607 1607 1608 1608 1609 1610 1611 1611 1612 1612 1612 1612 1612 1613 1613 1614 1614 1613 1613 1612 1612 1612 1612 1612 1612 1612 1612 1611 1611 1611 1611 1611 1610 1610 1609 1608 1607 1607 1606 1605 1604 1603 1602 1601 1600 1598 1596 1595 1593 1591 1589 1587 1584
1569 1570 1571 1573 1575 1576 1577 1578 1580 1581 1582 1582 1584 1585 1587 1588 1589 1590 1592 1593 1595 1597 1598 1599 1600 1602 1602 1603 1603 1604 1605 1605 1604 1605 1606 1606 1607 1608 1608 1609 1610 1610 1610 1610 1611 1611 1612 1612 1612 1612 1611 1611 1611 1610 1610 1611 1610 1610 1610 1610 1610 1609 1609 1609 1609 1609 1608 1607 1606 1606 1605 1603 1602 1601 1600 1599 1598 1597 1595 1593 1591 1589 1587 1585 1582
1567 1568 1569 1571 1572 1573 1574 1575 1576 1578 1578 1579 1581 1582 1584 1585 1586 1587 1589 1591 1592 1594 1595 1596 1597 1599 1600 1601 1602 1603 1602 1601 1602 1603 1604 1604 1605 1605 1606 1607 1608 1609 1609 1609 1609 1610 1610 1610 1610 1611 1610 1610 1609 1609 1609 1609 1609 1609 1609 1608 1608 1608 1608 1607 1607 1607 1606 1605 1605 1604 1603 1602 1601 1600 1599 1597 1596 1594 1592 1591 1589 1587 1585 1584 1581
1565 1567 1568 1569 1569 1570 1571 1572 1574 1575 1576 1577 1578 1580 1581 1582 1583 1585 1586 1588 1590 1591 1593 1594 1595 1596 1597 1598 1600 1600 1599 1598 1599 1601 1601 1602 1603 1603 1604 1605 1606 1607 1607 1608 1608 1608 1608 1608 1608 1609 1609 1608 1608 1608 1607 1607 1607 1607 1607 1607 1606 1606 1606 1606 1605 1605 1604 1603 1602 1601 1600 1600 1598 1597 1596 1595 1593 1591 1590 1588 1587 1585 1583 1582 1580
1563 1564 1565 1565 1566 1567 1568 1570 1571 1572 1573 1574 1576 1577 1579 1580 1581 1582 1584 1586 1587 1589 1590 1591 1592 1594 1595 1596 1597 1597 1595 1595 1597 1598 1599 1600 1600 1601 1602 1602 1603 1605 1605 1605 1606 1606 1606 1606 1606 1607 1607 1605 1605 1605 1606 1606 1605 1605 1605 1605 1604 1604 1604 1604 1603 1603 1602 1601 1599 1598 1598 1597 1595 1594 1593 1592 1591 1589 1587 1585 1584 1583 1581 1579 1577
1562 1562 1562 1563 1563 1564 1566 1567 1569 1569 1570 1572 1574 1575 1576 1577 1578 1580 1582 1584 1585 1586 1588 1589 1590 1591 1592 1593 1594 1593 1592 1593 1595 1595 1596 1597 1598 1598 1599 1600 1601 1602 1602 1603 1603 1604 1604 1604 1604 1604 1604 1603 1603 1603 1603 1603 1603 1603 1603 1602 1602 1602 1602 1602 1601 1600 1599 1598 1597 1596 1595 1594 1593 1591 1590 1590 1588 1586 1585 1583 1581 1580 1578 1576 1574
1561 1561 1561 1561 1562 1563 1564 1565 1567 1568 1569 1570 1572 1573 1574 1575 1576 1578 1580 1582 1583 1584 1586 1587 1588 1589 1590 1591 1591 1590 1589 1591 1592 1593 1594 1595 1595 1596 1596 1597 1598 1599 1600 1600 1600 1601 1601 1601 1602 1602 1601 1600 1600 1601 1601 1601 1601 1601 1600 1600 1600 1599 1599 1600 1599 1598 1597 1596 1594 1593 1592 1591 1590 1589 1588 1587 1585 1584 1582 1580 1579 1578 1576 1574 1572
1560 1561 1561 1562 1562 1563 1564 1565 1566 1567 1568 1569 1569 1570 1571 1572 1574 1577 1579 1580 1581 1582 1584 1585 1586 1587 1588 1589 1589 1587 1587 1588 1589 1590 1591 1592 1593 1594 1594 1595 1596 1596 1597 1597 1597 1598 1598 1598 1599 1599 1598 1597 1597 1598 1598 1598 1598 1598 1598 1597 1597 1596 1596 1596 1595 1594 1593 1592 1590 1589 1588 1587 1586 1585 1585 1584 1583 1581 1579 1577 1577 1577 1575 1573 1571
1561 1561 1562 1562 1563 1564 1565 1566 1567 1567 1568 1568 1568 1569 1570 1571 1573 1576 1577 1578 1579 1581 1583 1583 1584 1585 1586 1586 1586 1585 1586 1587 1587 1588 1588 1589 1590 1591 1592 1593 1593 1594 1594 1594 1594 1594 1594 1595 1596 1596 1595 1595 1595 1595 1595 1595 1595 1595 1595 1594 1593 1593 1593 1592 1592 1591 1590 1589 1587 1586 1585 1584 1583 1581 1581 1580 1580 1579 1577 1575 1575 1575 1573 1571 1570
1562 1563 1563 1563 1564 1565 1566 1567 1568 1568 1568 1569 1569 1570 1571 1572 1573 1574 1575 1576 1578 1580 1581 1582 1583 1583 1583 1584 1584 1584 1585 1585 1585 1586 1586 1587 1587 1588 1589 1590 1591 1592 1592 1592 1592 1591 1591 1592 1592 1592 1592 1593 1593 1593 1593 1593 1593 1592 1592 1591 1590 1590 1590 1589 1588 1588 1587 1586 1585 1584 1582 1581 1580 1578 1577 1577 1577 1576 1575 1573 1573 1572 1571 1569 1568
1563 1563 1564 1564 1565 1566 1567 1568 1569 1569 1569 1569 1570 1571 1572 1572 1573 1573 1575 1576 1578 1578 1580 1581 1582 1582 1582 1582 1582 1582 1583 1583 1583 1583 1584 1584 1585 1586 1587 1587 1588 1589 1590 1590 1590 1589 1589 1589 1589 1589 1590 1590 1590 1590 1590 1590 1590 1589 1589 1589 1588 1587 1587 1586 1585 1585 1584 1583 1582 1581 1580 1578 1578 1577 1575 1575 1574 1573 1572 1571 1570 1570 1568 1567 1566
1563 1564 1565 1566 1566 1566 1568 1569 1569 1569 1569 1570 1571 1571 1571 1572 1573 1574 1575 1576 1577 1577 1578 1580 1581 1581 1581 1581 1581 1580 1581 1581 1581 1581 1582 1582 1583 1583 1584 1584 1585 1586 1587 1587 1587 1588 1588 1587 1587 1586 1587 1588 1588 1588 1587 1587 1587 1587 1587 1586 1585 1585 1584 1583 1583 1582 1581 1580 1579 1578 1577 1576 1576 1575 1574 1573 1572 1571 1570 1569 1568 1567 1566 1565 1564
1564 1565 1566 1568 1568 1568 1569 1569 1568 1569 1570 1571 1572 1572 1572 1573 1574 1575 1576 1577 1577 1578 1579 1580 1580 1580 1580 1580 1579 1579 1579 1579 1579 1580 1581 1581 1581 1582 1582 1582 1583 1584 1585 1586 1586 1586 1586 1586 1585 1585 1585 1586 1586 1586 1585 1585 1585 1585 1585 1584 1583 1583 1582 1581 1580 1579 1579 1578 1577 1576 1575 1575 1574 1573 1573 1572 1571 1569 1568 1567 1566 1565 1564 1563 1562
1565 1566 1567 1568 1568 1569 1569 1569 1569 1570 1571 1572 1573 1573 1573 1574 1575 1576 1577 1578 1578 1579 1580 1580 1580 1579 1580 1579 1578 1578 1578 1578 1579 1579 1580 1580 1581 1581 1581 1582 1583 1584 1584 1585 1585 1585 1584 1584 1584 1584 1584 1584 1584 1584 1584 1583 1583 1583 1583 1582 1581 1580 1579 1578 1578 1577 1576 1575 1574 1574 1573 1572 1572 1571 1571 1570 1568 1566 1565 1564 1563 1562 1560 1559 1559
1566 1567 1567 1568 1568 1569 1569 1570 1570 1570 1571 1572 1573 1573 1574 1574 1575 1576 1577 1578 1578 1578 1579 1579 1579 1579 1579 1579 1578 1578 1578 1578 1578 1579 1579 1580 1580 1581 1581 1582 1582 1583 1584 1584 1584 1583 1583 1583 1583 1583 1583 1583 1582 1582 1582 1582 1582 1581 1580 1580 1579 1578 1577 1576 1576 1575 1574 1573 1572 1571 1571 1570 1570 1569 1567 1566 1564 1563 1562 1561 1560 1558 1557 1556 1554
1567 1568 1568 1568 1569 1569 1570 1570 1570 1570 1571 1572 1572 1572 1573 1573 1574 1574 1576 1577 1577 1577 1578 1578 1578 1579 1579 1578 1578 1578 1578 1578 1578 1578 1579 1579 1579 1580 1580 1581 1581 1582 1582 1582 1582 1582 1581 1581 1581 1581 1581 1580 1580 1580 1580 1579 1579 1579 1578 1577 1576 1576 1575 1574 1573 1573 1572 1571 1570 1570 1569 1568 1568 1566 1564 1563 1561 1560 1559 1558 1557 1556 1555 1553 1552
1568 1568 1569 1569 1569 1570 1570 1570 1570 1570 1570 1571 1571 1572 1573 1573 1573 1574 1575 1576 1577 1577 1577 1577 1578 1578 1578 1578 1578 1578 1578 1578 1577 1577 1577 1578 1578 1578 1578 1579 1580 1580 1581 1580 1580 1580 1580 1579 1579 1578 1578 1578 1577 1577 1577 1577 1576 1576 1575 1575 1574 1573 1573 1572 1571 1570 1570 1569 1568 1568 1567 1566 1565 1563 1562 1561 1560 1559 1558 1557 1555 1554 1553 1552 1550
1568 1568 1568 1569 1569 1569 1569 1569 1569 1569 1570 1571 1571 1572 1573 1573 1574 1574 1575 1575 1576 1576 1576 1577 1577 1577 1577 1577 1577 1577 1578 1577 1576 1576 1576 1576 1576 1577 1577 1577 1577 1578 1578 1578 1578 1578 1577 1577 1576 1576 1575 1575 1575 1574 1574 1574 1573 1573 1573 1572 1572 1571 1570 1570 1569 1568 1567 1566 1566 1565 1565 1564 1562 1561 1560 1559 1558 1557 1556 1555 1553 1552 1551 1550 1548
1568 1568 1569 1569 1569 1569 1569 1569 1569 1569 1570 1570 1571 1571 1572 1573 1573 1573 1573 1573 1574 1575 1575 1575 1575 1576 1576 1576 1576 1577 1577 1575 1574 1574 1575 1575 1575 1576 1575 1575 1576 1576 1576 1576 1575 1575 1575 1574 1574 1574 1573 1573 1573 1572 1572 1571 1571 1571 1570 1570 1570 1569 1568 1567 1567 1566 1565 1565 1564 1563 1562 1561 1560 1559 1558 1557 1556 1555 1553 1552 1551 1550 1549 1548 1546
1568 1568 1569 1569 1569 1569 1569 1569 1569 1569 1569 1570 1570 1570 1571 1571 1571 1571 1571 1572 1572 1572 1573 1573 1573 1574 1575 1574 1575 1575 1575 1573 1572 1573 1573 1573 1574 1574 1574 1574 1574 1574 1574 1574 1573 1573 1573 1572 1572 1572 1572 1572 1571 1571 1571 1571 1570 1569 1569 1568 1568 1567 1567 1567 1566 1565 1564 1563 1561 1561 1560 1559 1558 1557 1556 1555 1554 1552 1551 1550 1548 1547 1546 1545 1544
1567 1568 1568 1569 1569 1569 1569 1568 1568 1568 1569 1569 1569 1569 1569 1569 1569 1569 1570 1570 1571 1571 1571 1572 1572 1573 1573 1572 1572 1573 1572 1571 1571 1572 1571 1571 1572 1571 1571 1572 1572 1572 1572 1572 1571 1571 1571 1570 1571 1571 1571 1570 1570 1570 1569 1569 1568 1568 1568 1567 1567 1566 1566 1565 1565 1564 1563 1561 1560 1559 1558 1557 1556 1555 1554 1553 1552 1550 1549 1548 1547 1545 1544 1543 1542
1567 1567 1567 1567 1567 1567 1568 1567 1567 1567 1567 1567 1568 1568 1568 1568 1568 1568 1568 1568 1569 1569 1570 1570 1571 1571 1571 1570 1570 1570 1570 1570 1570 1570 1570 1569 1569 1569 1569 1569 1569 1569 1569 1569 1569 1569 1569 1569 1569 1569 1569 1568 1568 1568 1567 1567 1566 1566 1566 1566 1566 1565 1565 1564 1563 1562 1561 1560 1559 1558 1557 1556 1555 1554 1553 1551 1550 1548 1547 1546 1545 1544 1543 1542 1540
1567 1567 1566 1566 1566 1566 1566 1566 1566 1566 1566 1566 1567 1567 1567 1567 1567 1567 1567 1567 1567 1567 1567 1568 1568 1569 1569 1569 1568 1568 1568 1568 1568 1568 1568 1568 1568 1567 1567 1567 1567 1567 1567 1566 1567 1567 1567 1567 1568 1567 1567 1566 1566 1566 1565 1565 1565 1564 1564 1564 1564 1563 1563 1562 1561 1560 1559 1558 1558 1557 1556 1555 1554 1552 1551 1549 1548 1546 1545 1544 1543 1542 1541 1539 1538
1566 1566 1566 1565 1565 1565 1566 1565 1566 1566 1565 1565 1566 1566 1566 1566 1566 1566 1566 1566 1566 1566 1566 1566 1566 1566 1566 1567 1567 1566 1566 1566 1566 1566 1566 1566 1566 1566 1566 1566 1566 1565 1565 1565 1565 1566 1566 1566 1566 1566 1565 1565 1565 1564 1564 1563 1563 1562 1562 1561 1561 1561 1561 1560 1558 1557 1557 1557 1556 1555 1555 1554 1552 1551 1549 1548 1546 1545 1544 1542 1541 1540 1538 1537 1535
1565 1565 1565 1565 1564 1565 1565 1565 1565 1565 1565 1565 1565 1565 1565 1565 1565 1565 1565 1565 1565 1565 1565 1565 1565 1564 1564 1564 1564 1565 1565 1565 1565 1565 1564 1564 1564 1564 1564 1565 1565 1564 1564 1564 1564 1564 1564 1564 1564 1564 1563 1563 1562 1562 1562 1561 1561 1560 1560 1559 1559 1559 1558 1557 1556 1555 1555 1554 1554 1553 1553 1552 1550 1549 1547 1546 1545 1543 1542 1540 1539 1537 1536 1534 1533
1565 1565 1564 1564 1564 1564 1564 1564 1564 1564 1564 1564 1564 1565 1565 1564 1564 1564 1565 1565 1565 1565 1564 1564 1563 1563 1563 1563 1563 1563 1563 1563 1563 1563 1563 1563 1563 1563 1563 1563 1563 1563 1563 1562 1562 1562 1562 1562 1562 1561 1561 1560 1560 1560 1559 1559 1558 1558 1558 1557 1557 1556 1555 1555 1554 1553 1552 1551 1551 1551 1550 1549 1548 1547 1545 1544 1543 1541 1539 1538 1537 1535 1534 1532 1530
1564 1564 1563 1563 1563 1563 1562 1562 1562 1563 1563 1563 1563 1564 1564 1563 1564 1564 1563 1563 1564 1564 1564 1563 1562 1562 1562 1562 1561 1561 1561 1561 1561 1561 1561 1561 1562 1562 1562 1562 1562 1562 1562 1561 1561 1560 1560 1559 1559 1559 1558 1558 1557 1557 1557 1556 1556 1555 1555 1554 1553 1553 1553 1552 1552 1550 1549 1549 1548 1548 1547 1546 1545 1544 1543 1541 1540 1539 1537 1535 1534 1532 1531 1529 1527
1564 1564 1563 1562 1562 1561 1561 1561 1561 1561 1561 1562 1562 1562 1562 1562 1563 1563 1563 1563 1562 1562 1562 1562 1561 1561 1561 1560 1559 1559 1559 1559 1559 1559 1559 1559 1559 1559 1560 1560 1560 1560 1560 1559 1559 1558 1558 1557 1557 1557 1556 1556 1555 1555 1555 1554 1553 1552 1552 1551 1550 1550 1549 1548 1548 1547 1546 1546 1546 1545 1544 1543 1542 1541 1540 1539 1537 1536 1534 1532 1531 1529 1527 1526 1524
1563 1563 1562 1561 1561 1560 1560 1560 1559 1560 1560 1560 1561 1561 1561 1561 1561 1561 1562 1561 1560 1560 1560 1560 1560 1560 1560 1559 1558 1557 1557 1557 1558 1557 1557 1557 1557 1557 1557 1557 1557 1557 1558 1557 1557 1556 1556 1556 1555 1555 1554 1554 1553 1553 1552 1551 1551 1550 1549 1548 1547 1547 1546 1545 1545 1544 1543 1543 1542 1542 1541 1540 1539 1539 1537 1536 1534 1532 1531 1529 1528 1526 1524 1523 1521
1561 1561 1561 1560 1560 1559 1559 1559 1558 1559 1559 1560 1560 1560 1560 1560 1560 1560 1560 1560 1559 1559 1560 1560 1559 1560 1559 1558 1556 1555 1555 1555 1556 1556 1556 1555 1555 1555 1555 1554 1554 1554 1554 1554 1554 1553 1553 1553 1553 1552 1552 1551 1550 1550 1549 1548 1548 1547 1546 1545 1545 1544 1544 1543 1543 1542 1541 1540 1539 1539 1538 1537 1536 1535 1534 1532 1531 1530 1528 1526 1524 1523 1521 1519 1518
1560 1559 1559 1559 1559 1558 1558 1558 1558 1558 1558 1559 1559 1559 1559 1559 1558 1558 1559 1559 1558 1558 1558 1558 1559 1558 1557 1555 1554 1553 1553 1553 1553 1554 1554 1553 1553 1553 1552 1552 1552 1551 1551 1551 1551 1550 1550 1550 1549 1549 1548 1548 1547 1547 1546 1545 1544 1544 1543 1543 1543 1542 1541 1541 1540 1539 1538 1537 1536 1535 1534 1533 1533 1531 1530 1529 1527 1526 1524 1522 1520 1519 1517 1515 1514
1558 1558 1557 1557 1557 1557 1557 1557 1557 1557 1557 1557 1557 1557 1557 1557 1557 1557 1557 1557 1557 1557 1557 1557 1557 1556 1554 1552 1551 1551 1551 1551 1551 1552 1552 1551 1551 1552 1551 1551 1550 1550 1549 1549 1548 1548 1547 1547 1546 1546 1545 1545 1544 1544 1543 1542 1541 1541 1540 1540 1539 1538 1538 1537 1536 1535 1534 1533 1532 1531 1530 1530 1528 1527 1526 1524 1523 1521 1520 1518 1517 1515 1514 1512 1511
1557 1556 1556 1556 1555 1555 1555 1555 1555 1555 1555 1555 1555 1555 1556 1556 1556 1556 1556 1555 1555 1555 1555 1555 1555 1554 1551 1549 1549 1549 1549 1548 1549 1550 1550 1550 1550 1550 1550 1549 1549 1548 1548 1547 1546 1545 1545 1544 1543 1543 1543 1542 1542 1541 1540 1539 1538 1537 1537 1536 1535 1534 1533 1532 1531 1530 1529 1528 1528 1527 1526 1525 1524 1522 1521 1519 1518 1517 1515 1514 1512 1511 1510 1508 1507
1555 1554 1554 1554 1554 1553 1554 1554 1554 1553 1553 1554 1554 1554 1554 1555 1555 1554 1554 1554 1553 1553 1553 1553 1553 1552 1550 1548 1547 1547 1547 1547 1548 1548 1548 1548 1548 1548 1547 1547 1547 1546 1545 1545 1544 1543 1542 1541 1541 1540 1540 1540 1539 1539 1538 1537 1536 1535 1534 1533 1532 1531 1530 1529 1528 1527 1526 1525 1524 1523 1521 1520 1519 1518 1517 1516 1514 1513 1511 1509 1507 1506 1505 1504 1502
1552 1552 1552 1552 1552 1552 1552 1551 1551 1552 1552 1552 1552 1552 1552 1553 1553 1553 1552 1552 1552 1551 1551 1551 1551 1551 1550 1548 1547 1546 1546 1546 1546 1546 1546 1546 1545 1545 1545 1544 1544 1543 1542 1542 1541 1540 1539 1539 1538 1538 1537 1536 1536 1535 1534 1534 1533 1532 1531 1530 1529 1528 1527 1526 1525 1524 1523 1522 1520 1518 1517 1516 1515 1514 1513 1512 1511 1509 1507 1505 1504 1502 1501 1499 1498
1550 1550 1550 1550 1550 1550 1550 1549 1549 1550 1550 1550 1551 1551 1551 1551 1551 1551 1551 1550 1550 1549 1549 1549 1549 1549 1548 1547 1546 1546 1545 1545 1544 1543 1542 1542 1542 1542 1542 1541 1540 1540 1539 1539 1538 1537 1536 1536 1535 1534 1534 1533 1532 1531 1531 1530 1529 1528 1528 1527 1526 1525 1524 1523 1522 1520 1519 1517 1516 1514 1512 1511 1510 1509 1508 1507 1506 1505 1503 1501 1500 1498 1496 1495 1493
1547 1547 1548 1548 1548 1548 1548 1548 1547 1548 1549 1549 1550 1550 1549 1549 1549 1549 1549 1548 1548 1547 1547 1546 1546 1546 1545 1545 1544 1544 1543 1542 1541 1541 1540 1540 1540 1539 1539 1538 1537 1537 1536 1536 1535 1534 1533 1533 1532 1531 1530 1529 1528 1528 1527 1526 1525 1524 1524 1523 1522 1521 1519 1517 1516 1514 1513 1512 1510 1509 1507 1506 1505 1504 1503 1502 1501 1499 1497 1496 1495 1493 1492 1490 1488
1544 1545 1545 1546 1546 1546 1546 1546 1546 1546 1546 1547 1547 1547 1547 1547 1547 1547 1546 1545 1545 1544 1544 1543 1543 1543 1543 1542 1542 1541 1540 1539 1539 1538 1538 1537 1537 1536 1536 1535 1534 1533 1532 1532 1532 1531 1530 1529 1528 1527 1526 1526 1525 1524 1523 1522 1521 1520 1520 1519 1518 1516 1514 1512 1511 1509 1508 1506 1505 1503 1502 1500 1499 1498 1497 1496 1495 1494 1492 1490 1489 1488 1487 1485 1483
1542 1542 1542 1543 1544 1545 1544 1544 1544 1544 1544 1544 1544 1545 1545 1545 1544 1544 1544 1543 1542 1542 1542 1541 1541 1541 1540 1539 1538 1538 1537 1537 1536 1536 1535 1534 1534 1533 1532 1531 1530 1529 1528 1528 1528 1527 1526 1526 1525 1524 1523 1522 1521 1520 1519 1519 1517 1517 1516 1515 1513 1510 1508 1508 1507 1505 1503 1501 1500 1498 1497 1495 1493 1492 1491 1490 1490 1488 1487 1485 1483 1482 1481 1479 1478
1539 1540 1540 1541 1542 1543 1543 1542 1542 1542 1542 1542 1542 1542 1542 1542 1542 1541 1541 1541 1540 1540 1539 1539 1538 1537 1537 1536 1536 1536 1535 1534 1534 1533 1533 1532 1531 1530 1529 1528 1526 1525 1525 1525 1524 1524 1522 1521 1520 1520 1519 1518 1517 1516 1515 1514 1514 1513 1512 1509 1506 1505 1505 1504 1503 1501 1499 1497 1495 1493 1491 1489 1487 1486 1485 1485 1484 1483 1482 1480 1478 1477 1475 1474 1473
1536 1537 1538 1538 1540 1541 1541 1540 1539 1540 1540 1539 1539 1539 1539 1539 1539 1538 1538 1538 1538 1537 1537 1536 1536 1535 1535 1534 1534 1533 1532 1532 1531 1531 1530 1529 1528 1527 1526 1524 1523 1522 1521 1521 1520 1519 1518 1517 1516 1516 1515 1514 1513 1512 1511 1510 1510 1509 1506 1503 1501 1501 1501 1499 1498 1497 1495 1492 1489 1487 1485 1483 1482 1481 1480 1480 1479 1478 1476 1475 1473 1472 1471 1469 1468
1533 1534 1535 1536 1537 1538 1538 1537 1537 1537 1537 1536 1535 1536 1536 1536 1536 1536 1536 1536 1535 1535 1535 1534 1534 1533 1532 1532 1531 1530 1529 1529 1529 1528 1527 1526 1525 1524 1523 1522 1521 1520 1518 1518 1517 1516 1515 1513 1512 1511 1510 1509 1508 1507 1506 1506 1505 1503 1499 1498 1497 1496 1495 1493 1492 1491 1489 1487 1484 1481 1479 1478 1476 1475 1475 1475 1473 1472 1471 1470 1469 1467 1466 1464 1463